Regional Weather Roundup
Issued by NWS Boston, MA

Home | Current Version | Previous Version | Text Only | Print | Product List | Glossary On
Versions: 1 2 3 4 5 6 7 8 9 10 11 12 13 14 15 16 17 18 19 20 21 22 23 24 25 26 27 28 29 30 31 32 33 34 35 36 37 38 39 40 41 42 43 44 45 46 47 48 49 50
000
ASUS41 KBOX 290310
RWRBOX

REGIONAL WEATHER ROUNDUP
NATIONAL WEATHER SERVICE TAUNTON MA
1100 PM EDT SAT MAR 28 2015

NOTE:  "FAIR" INDICATES FEW OR NO CLOUDS BELOW 12,000 FEET WITH NO
SIGNIFICANT WEATHER AND/OR OBSTRUCTIONS TO VISIBILITY.  THE FOLLOWING
OBSERVATION LOCATIONS DO NOT REPORT PRESENT WEATHER...PROVINCETOWN...
SMITHFIELD...BLOCK ISLAND...KEENE...AND OXFORD.

MAZALL-290400-
EASTERN MASSACHUSETTS

CITY           SKY/WX    TMP DP  RH WIND       PRES   REMARKS
BOSTON         CLOUDY    33  25  72 NW15      30.00R WCI  23
BEVERLY        CLOUDY    32  21  64 NW12      29.98R WCI  23
LAWRENCE       CLOUDY    32  18  56 NW12      30.01R WCI  23
BEDFORD        CLOUDY    31  21  66 NW12      30.00R WCI  22
BLUE HILL        N/A     29  27  92 NW12      29.96R WCI  19
NORWOOD        CLOUDY    32  27  81 NW8       30.00R WCI  25
MARSHFIELD     CLOUDY    34  32  93 W3        30.01R FOG
PLYMOUTH       LGT SNOW  32  31  96 NW8       29.99R FOG     WCI  25
TAUNTON        LGT SNOW  33  30  88 N6        30.00R FOG     WCI  28
NEW BEDFORD    LGT SNOW  32  31  96 NW3       29.99R FOG
$$

MAZALL-290400-
CAPE COD AND THE ISLANDS

CITY           SKY/WX    TMP DP  RH WIND       PRES   REMARKS
FALMOUTH       MIX PCPN  32  32 100 NW3       29.98R
HYANNIS        CLOUDY    32  31  96 CALM      29.96R
CHATHAM        CLOUDY    33  29  85 CALM      29.98R
PROVINCETOWN   PTCLDY    36  25  64 N7        29.98R WCI  30
NANTUCKET      CLOUDY    34  30  85 NE7       29.97R WCI  28
MARTHAS VNYRD  LGT SNOW  32  28  85 N3        29.99R FOG
$$

MAZALL-290400-
CENTRAL AND WESTERN MASSACHUSETTS

CITY           SKY/WX    TMP DP  RH WIND       PRES   REMARKS
WORCESTER      FLURRIES  26  19  74 NW13G21   29.97R WCI  15
FITCHBURG      CLOUDY    30  17  58 NW14G20   30.02R WCI  19
ORANGE         CLOUDY    25   7  46 NW13      30.03R WCI  14
SPRINGFIELD    CLOUDY    29  15  55 N8        30.04R WCI  21
WESTFIELD      CLOUDY    29  15  56 N16       30.05R WCI  17
NORTH ADAMS    PTCLDY    25  10  53 W8        30.08R WCI  16
PITTSFIELD     CLOUDY    22  13  68 NW9       30.02R WCI  12
$$

RIZALL-290400-
RHODE ISLAND

CITY           SKY/WX    TMP DP  RH WIND       PRES   REMARKS
PROVIDENCE     LGT SNOW  32  30  92 N8        30.01R VSB 1   WCI  25
NEWPORT        LGT SNOW  31  30  96 NW3       30.00R VSB 3/4
BLOCK ISLAND   CLOUDY    32  30  93 NE8       29.99R WCI  25
SMITHFIELD     CLOUDY    30  25  80 NW8       29.98R WCI  23
WESTERLY       LGT SNOW  31  29  92 N8        30.02R VSB 1   WCI  23
$$

CTZALL-290400-
CONNECTICUT

CITY           SKY/WX    TMP DP  RH WIND       PRES   REMARKS
BRADLEY INTL   CLOUDY    30  17  58 N12       30.04R WCI  20
HARTFORD       CLOUDY    30  20  66 N9G18     30.06R WCI  22
BRIDGEPORT     LGT SNOW  29  24  82 NW14      30.07R WCI  18
DANBURY        CLOUDY    26  15  63 NW13G21   30.08R WCI  15
GROTON         LGT SNOW  31  27  85 N16       30.02R FOG     WCI  20
NEW HAVEN      LGT SNOW  29  25  85 NW10      30.04R FOG     WCI  20
CHESTER        FLURRIES  30  27  86 N14G20    30.02R WCI  20
MERIDEN        LGT SNOW  28  25  88 NW8       30.06R FOG     WCI  20
WILLIMANTIC    LGT SNOW  29  25  85 N8        30.03R FOG     WCI  21
OXFORD         CLOUDY    25  16  68 NW10      30.04R WCI  15
$$

MEZ002-015-021-024-NHZ003-005-008-011-012-014-VTZ005-008-290400-
NORTHERN NEW ENGLAND

CITY           SKY/WX    TMP DP  RH WIND       PRES   REMARKS
PORTLAND ME    PTCLDY    32  16  51 N14       29.98R WCI  22
BANGOR ME      MOCLDY    30  14  51 NW10      29.93R WCI  21
CONCORD NH     MOCLDY    27  10  49 NW14      30.03R WCI  16
MANCHESTER NH  CLOUDY    30  16  56 NW12      30.01R WCI  20
NASHUA NH      PTCLDY    30  16  56 NW18G25   30.02R WCI  18
PORTSMOUTH NH  CLOUDY    31  19  60 NW12      29.98R WCI  22
JAFFREY NH     CLOUDY    24  11  57 VRB5      29.99R WCI  18
KEENE NH       PTCLDY    27   7  43 N8        30.05R WCI  18
BURLINGTON VT  CLEAR     19   9  65 SW3       30.11S
MT. WASHINGTON MOCLDY    -2 -11  65 NW24        N/A  WCI -27
$$

NYZ052-076-290400-
EASTERN NEW YORK

CITY           SKY/WX    TMP DP  RH WIND       PRES   REMARKS
ALBANY         CLOUDY    26  10  50 NW17      30.14R WCI  13
NEW YORK CITY  FLURRIES  30  17  58 NW16      30.10R WCI  19
$$

ANZALL-290400-
MARINE OBSERVATIONS

STATION/POSITION TIME  TEMP    WIND        PRES    VSBY  WAVE
                       AIR SEA DIR/SP/G                  HT/PER
                 (UTC) (F)     (DEG/KT/KT) (MB)    (MI)  (FT/S)
BOSTON BUOY      0250   34 36  290/ 10/ 14 1015.4R         7/ 8
BUZZARDS BAY     0200          350/ 11/ 12 1015.6R
NANTUCKET SOUND  0250   36 37   30/ 10/ 12 1014.9R         3/ 5
MASS BAY-STELLWA 0204   33 36  250/  6/  8   N/A    1 7/8  8/ 8
ISLE OF SHOALS   0300   34     320/ 19/ 22 1014.4R
S OF BLOCK IS    0208      37                N/A           5/11
$$

......................KEY.........................
  SKY/WX - SKY CONDITION/PRESENT WEATHER
  TMP    - TEMPERATURE IN FAHRENHEIT
  DWPT   - DEWPOINT IN FAHRENHEIT
  RH     - RELATIVE HUMIDITY IN PERCENT
  WIND   - DIRECTION AND SPEED IN MPH
  PRES   - MEAN SEA LEVEL PRESSURE IN INCHES OF HG
  WCI    - WIND CHILL INDEX
  VSB    - VISIBILITY IN MILES
  HX     - HEAT INDEX
  TC     - TEMPERATURE IN CELSIUS
  VRB    - VARIABLE WIND DIRECTION
  N/A    - NOT AVAILABLE


USA.gov is the U.S. government's official web portal to all federal, state and local government web resources and services.